Torna al catalogo

STARLINK-32186

AttivoComunicazioniVLEO
NORAD 60412·PAYLOAD·🇺🇸 United States

Lanciato Aug 10, 2024 da Cape Canaveral Space Force Station

Loading…

Prossimi Passaggi (prossime 24 ore)

TLE

AggiornatoSource: CelesTrak SupGP

Epoca: Sep 14, 2026, 21:15 UTC

1 60412C 24141Q   26257.88590278  .00006504  00000+0  19217-3 0  2578
2 60412  53.1570  79.7142 0001265  86.3388 320.1561 15.34383858    13

Traccia STARLINK-32186 in tempo reale con AllMySat

Download on the App Store